Location: Doverdale
(52.2833°N, 2.2000°W)
Time: 03:20:58
(UTC+00:00)

YAOGAN 1 - Pass Details

Date: 29 October 2020
Orbit: 618 x 620 km, 97.9° (Epoch: 27 November)

Event Time Altitude Azimuth Distance (km) Brightness Sun altitude
Rises 17:17:28 0° 122° (ESE) 2,894 5.6 -5.6°
Reaches altitude 10° 17:20:07 10° 105° (ESE) 1,992 4.6 -6.0°
Maximum altitude 17:23:14 20° 59° (ENE) 1,456 3.9 -6.5°
Drops below altitude 10° 17:26:22 10° 12° (NNE) 2,001 4.9 -6.9°
Sets 17:29:02 0° 356° (N) 2,912 5.9 -7.3°
